Weather History for KFMM - August, 2013

Change the Weather History Date:

Thursday, August 1, 2013

  Actual Average (KAKO) Record (KAKO)
Temperature  
Mean Temperature 69 °F 74 °F  
Max Temperature 77 °F 88 °F 109 °F (1938)
Min Temperature 61 °F 60 °F 47 °F (1995)
Degree Days  
Heating Degree Days 0    
Month to date heating degree days  
Cooling Degree Days 4    
Month to date cooling degree days  
Growing Degree Days 19 (Base 50)    
Moisture  
Dew Point 57 °F    
Average Humidity 73    
Maximum Humidity 86    
Minimum Humidity 56    
Precipitation  
Precipitation 0.00 in 0.10 in 2.12 in (1994)
Month to date precipitation 0.10  
Year to date precipitation 11.29  
Sea Level Pressure  
Sea Level Pressure 30.09 in    
Wind  
Wind Speed 10 mph (SSE)    
Max Wind Speed 20 mph    
Max Gust Speed 24 mph    
Visibility 10 miles    
Events Thunderstorm    
T = Trace of Precipitation, MM = Missing Value Source: NWS Daily Summary

Daily Weather History Graph

Daily Weather History Graph

Search for Another Location

Airport or City:

Trip Planner

Search our weather history database for the weather conditions in past years. The results will help you decide how hot, cold, wet, or windy it might be!

Date:

Astronomy

Aug. 01, 2013 Rise Set
Actual Time 5:53 AM MDT 8:09 PM MDT
Civil Twilight 5:22 AM MDT 8:39 PM MDT
Nautical Twilight 4:45 AM MDT 9:17 PM MDT
Astronomical Twilight 4:03 AM MDT 9:58 PM MDT
Moon 1:30 AM MDT (8/1) 4:20 PM MDT (8/1)
Length of Visible Light 15h 17m
Length of Day
14h 16m
Waning Crescent, 23% of the Moon is Illuminated
Aug 1
Waning Crescent
Aug 6
New
Aug 14
First Quarter
Aug 20
Full
Aug 28
Last Quarter

Hourly Weather History & Observations

Time (MDT) Temp. Dew Point Humidity Pressure Visibility Wind Dir Wind Speed Gust Speed Precip Events Conditions
12:15 AM 65.8 °F 56.5 °F 72% 30.26 in 10.0 mi South 19.6 mph 24.2 mph N/A   Mostly Cloudy
12:35 AM 65.3 °F 57.4 °F 76% 30.27 in 10.0 mi SSE 12.7 mph 23.0 mph N/A   Mostly Cloudy
12:55 AM 65.3 °F 57.6 °F 76% 30.26 in 10.0 mi SSE 15.0 mph 20.7 mph N/A   Overcast
1:15 AM 64.4 °F 57.4 °F 78% 30.26 in 10.0 mi South 13.8 mph - N/A   Scattered Clouds
1:35 AM 64.2 °F 57.4 °F 78% 30.26 in 10.0 mi South 12.7 mph 17.3 mph N/A   Clear
1:55 AM 64.6 °F 56.3 °F 74% 30.25 in 10.0 mi South 11.5 mph 23.0 mph N/A   Scattered Clouds
2:15 AM 64.4 °F 55.8 °F 73% 30.24 in 10.0 mi South 12.7 mph 20.7 mph N/A   Scattered Clouds
2:35 AM 64.4 °F 55.6 °F 73% 30.23 in 10.0 mi South 11.5 mph 19.6 mph N/A   Clear
2:55 AM 63.7 °F 55.8 °F 75% 30.22 in 10.0 mi South 10.4 mph - N/A   Clear
3:15 AM 63.3 °F 55.9 °F 77% 30.22 in 10.0 mi South 9.2 mph - N/A   Clear
3:35 AM 63.0 °F 55.9 °F 78% 30.21 in 10.0 mi South 11.5 mph - N/A   Clear
3:55 AM 63.5 °F 56.1 °F 77% 30.20 in 10.0 mi South 10.4 mph - N/A   Clear
4:15 AM 63.3 °F 56.3 °F 78% 30.20 in 10.0 mi South 10.4 mph 18.4 mph N/A   Clear
4:35 AM 62.6 °F 56.3 °F 80% 30.20 in 10.0 mi South 10.4 mph - N/A   Clear
4:55 AM 62.1 °F 56.5 °F 82% 30.19 in 10.0 mi South 8.1 mph - N/A   Clear
5:15 AM 61.3 °F 56.7 °F 85% 30.19 in 10.0 mi North - - N/A   Clear
5:35 AM 61.9 °F 57.2 °F 85% 30.18 in 10.0 mi SSW 9.2 mph - N/A   Clear
5:55 AM 62.6 °F 57.4 °F 83% 30.18 in 10.0 mi SSW 9.2 mph - N/A   Clear
6:15 AM 61.5 °F 57.2 °F 86% 30.17 in 10.0 mi SSW 6.9 mph - N/A   Clear
6:35 AM 62.4 °F 57.7 °F 85% 30.16 in 10.0 mi WSW 5.8 mph - N/A   Clear
6:55 AM 65.1 °F 58.5 °F 79% 30.16 in 10.0 mi SW 5.8 mph - N/A   Clear
7:15 AM 66.7 °F 58.5 °F 75% 30.16 in 10.0 mi SSW 5.8 mph - N/A   Clear
7:35 AM 68.0 °F 58.8 °F 72% 30.15 in 10.0 mi South 3.5 mph - N/A   Clear
7:55 AM 68.5 °F 59.0 °F 72% 30.15 in 10.0 mi SE 4.6 mph - N/A   Clear
8:15 AM 69.6 °F 59.2 °F 69% 30.15 in 10.0 mi SSE 8.1 mph - N/A   Clear
8:35 AM 71.2 °F 60.1 °F 68% 30.15 in 10.0 mi SE 3.5 mph - N/A   Clear
8:55 AM 73.6 °F 60.1 °F 63% 30.14 in 10.0 mi SE 4.6 mph - N/A   Clear
9:15 AM 75.4 °F 60.3 °F 59% 30.14 in 10.0 mi SSE 3.5 mph - N/A   Clear
9:35 AM - - N/A% 30.13 in 10.0 mi SSE 5.8 mph - N/A   Clear
9:55 AM - - N/A% 30.12 in 10.0 mi SE 8.1 mph - N/A   Clear
10:15 AM - - N/A% 30.12 in 10.0 mi SE 5.8 mph - N/A   Clear
10:35 AM - - N/A% 30.11 in 10.0 mi South 6.9 mph - N/A   Clear
10:55 AM - - N/A% 30.11 in 10.0 mi SE 8.1 mph - N/A   Clear
11:15 AM - - N/A% 30.09 in 10.0 mi SE 8.1 mph - N/A   Clear
11:35 AM - - N/A% 30.09 in 10.0 mi SE 6.9 mph - N/A   Clear
11:55 AM - - N/A% 30.08 in 10.0 mi SE 12.7 mph - N/A   Clear
12:15 PM - - N/A% 30.08 in 10.0 mi ESE 12.7 mph - N/A   Clear
12:35 PM - - N/A% 30.06 in 10.0 mi SE 15.0 mph 19.6 mph N/A   Clear
12:55 PM - - N/A% 30.05 in 10.0 mi ESE 13.8 mph 18.4 mph N/A   Clear
1:15 PM - - N/A% 30.04 in 10.0 mi SE 13.8 mph 19.6 mph N/A   Clear
1:35 PM - - N/A% 30.04 in 10.0 mi South 8.1 mph - N/A   Clear
1:55 PM - - N/A% 30.04 in 10.0 mi South 6.9 mph - N/A   Clear
2:15 PM - - N/A% 30.04 in 10.0 mi SW 5.8 mph - N/A   Clear
2:35 PM - - N/A% 30.03 in 10.0 mi Calm Calm - N/A   Clear
2:55 PM - - N/A% 30.02 in 10.0 mi Calm Calm - N/A   Clear
3:15 PM - - N/A% 30.01 in 10.0 mi ESE 6.9 mph - N/A   Clear
3:35 PM - - N/A% 29.99 in 10.0 mi SSE 9.2 mph - N/A   Clear
3:55 PM - - N/A% 29.99 in 10.0 mi SE 8.1 mph - N/A   Clear
4:15 PM - - N/A% 29.98 in 10.0 mi SE 6.9 mph - N/A   Clear
4:35 PM - - N/A% 29.99 in 10.0 mi SE 5.8 mph - N/A   Clear
4:55 PM - - N/A% 29.98 in 10.0 mi SE 5.8 mph - N/A   Clear
5:15 PM - - N/A% 30.00 in 10.0 mi WSW 12.7 mph 19.6 mph N/A   Scattered Clouds
5:35 PM 73.8 °F 60.6 °F 63% 29.99 in 7.0 mi West 3.5 mph - N/A   Mostly Cloudy
5:55 PM - - N/A% 29.99 in 10.0 mi Calm Calm - N/A   Scattered Clouds
6:15 PM 77.7 °F 61.2 °F 57% 29.98 in 10.0 mi NNW 10.4 mph - N/A Thunderstorm Thunderstorm
6:35 PM - - N/A% 29.99 in 10.0 mi NNW 11.5 mph - N/A   Clear
6:55 PM - - N/A% 30.00 in 10.0 mi NNW 8.1 mph - N/A   Scattered Clouds
7:15 PM - - N/A% 30.01 in 10.0 mi North 17.3 mph 24.2 mph N/A   Scattered Clouds
7:35 PM 73.2 °F 56.8 °F 56% 30.03 in 10.0 mi ENE 13.8 mph 21.9 mph N/A   Clear
7:55 PM 70.3 °F 55.9 °F 60% 30.02 in 10.0 mi NE 17.3 mph 23.0 mph N/A   Clear
8:15 PM 67.8 °F 55.2 °F 64% 30.01 in 10.0 mi ENE 11.5 mph - N/A   Clear
8:35 PM 66.4 °F 55.4 °F 68% 30.02 in 10.0 mi North - - N/A   Clear
8:55 PM 64.8 °F 55.0 °F 71% 30.02 in 10.0 mi East 8.1 mph - N/A   Clear
9:15 PM 63.7 °F 55.6 °F 75% 30.00 in 10.0 mi East 8.1 mph - N/A   Clear
9:35 PM 63.9 °F 55.8 °F 75% 30.00 in 10.0 mi East 6.9 mph - N/A   Clear
9:55 PM 62.8 °F 55.0 °F 76% 29.98 in 10.0 mi SSE 4.6 mph - N/A   Clear
10:15 PM 63.1 °F 54.9 °F 74% 29.98 in 10.0 mi Calm Calm - N/A   Clear
10:35 PM 62.6 °F 54.9 °F 76% 29.98 in 10.0 mi NNW 5.8 mph - N/A   Clear
10:55 PM 62.6 °F 54.1 °F 74% 29.98 in 10.0 mi WNW 3.5 mph - N/A   Clear
11:15 PM 64.0 °F 53.1 °F 67% 29.96 in 10.0 mi Calm Calm - N/A   Clear
11:35 PM 61.9 °F 53.8 °F 75% 29.96 in 10.0 mi Calm Calm - N/A   Clear
11:55 PM 62.6 °F 53.4 °F 72% 29.97 in 10.0 mi NW 6.9 mph - N/A   Clear